Location: Newark
(49.8348°N, 24.0280°E)
Time: 11:24:37
(UTC+00:00)

Vanguard 1 - Visible Passes

Search period start: 20 January 2020 00:00
Search period end: 30 January 2020 00:00
Orbit: 651 x 3832 km, 34.2° (Epoch: 20 January)

Date Brightness Start Highest point End Pass type
(mag) Time Alt. Az. Time Alt. Az. Time Alt. Az.
20 Jan 11.7 18:13:41 10° SW 18:16:46 21° S 18:16:46 21° S visible
21 Jan 11.8 16:17:46 10° S 16:19:41 12° SSE 16:21:50 10° SE visible
21 Jan 11.9 18:34:17 10° SW 18:36:37 18° SSW 18:36:37 18° SSW visible
22 Jan 11.7 16:37:32 10° SSW 16:40:12 14° SSE 16:43:18 10° SE visible
22 Jan 12.1 18:55:02 10° SW 18:56:27 15° SW 18:56:27 15° SW visible
23 Jan 11.6 16:57:46 10° SSW 17:00:45 16° SSE 17:03:35 12° SE visible
23 Jan 12.4 19:16:00 10° SW 19:16:19 11° SW 19:16:19 11° SW visible
24 Jan 11.6 17:18:14 10° SSW 17:21:21 16° S 17:23:28 14° SSE visible
25 Jan 11.7 17:38:54 10° SW 17:41:59 16° S 17:43:21 15° SSE visible
26 Jan 11.8 15:41:56 10° S 15:43:35 12° SSE 15:45:19 10° SE visible
26 Jan 11.9 17:59:50 10° SW 18:02:39 14° S 18:03:16 14° S visible
27 Jan 11.7 16:02:08 10° SSW 16:04:10 13° S 16:06:21 10° SE visible
27 Jan 12.0 18:21:09 10° SSW 18:23:12 12° S 18:23:12 12° S visible
28 Jan 11.8 16:22:42 10° SSW 16:24:46 13° S 16:27:01 10° SSE visible
29 Jan 11.9 16:43:34 10° SSW 16:45:23 12° S 16:47:20 10° SSE visible
